BCS332 EDDF-EGCC

Flight info

Callsign BCS332
Flight time N/A
Altitude 34000
Route OBOKA3M/25C OBOKA Z29 TORNU DCT BATAK DCT GALSO Q63 ERING L179 LAM UN57 WELIN T420 ELVOS
Aircraft B752/M-SDE2E3FGHIJ3J4J7RWXY/LB1

Departure

Time 2026-05-06 18:01
Airport Frankfurt Main Airport (EDDF)

Arrival

Time N/A
Airport Manchester Airport (EGCC)
Time Latitude Longitude Altitude Speed Heading
2026-05-06 16:52 50.03688 8.52554 346 ft 0 kts 340°
2026-05-06 17:36 50.03676 8.52562 345 ft 2 kts 336°
2026-05-06 17:36 50.03662 8.52570 344 ft 2 kts 341°
2026-05-06 17:36 50.03648 8.52578 344 ft 2 kts 339°
2026-05-06 17:36 50.03633 8.52583 344 ft 2 kts
2026-05-06 17:37 50.03619 8.52577 343 ft 2 kts 26°
2026-05-06 17:37 50.03607 8.52565 343 ft 2 kts 47°
2026-05-06 17:37 50.03599 8.52545 343 ft 2 kts 69°
2026-05-06 17:37 50.03596 8.52526 343 ft 0 kts 88°
2026-05-06 17:38 50.03596 8.52516 343 ft 0 kts 91°
2026-05-06 17:41 50.03596 8.52539 343 ft 4 kts 90°
2026-05-06 17:42 50.03597 8.52598 343 ft 6 kts 86°
2026-05-06 17:42 50.03605 8.52666 343 ft 6 kts 76°
2026-05-06 17:42 50.03622 8.52741 344 ft 7 kts 70°
2026-05-06 17:42 50.03628 8.52807 344 ft 5 kts 101°
2026-05-06 17:43 50.03611 8.52859 343 ft 5 kts 127°
2026-05-06 17:43 50.03590 8.52900 343 ft 3 kts 116°
2026-05-06 17:43 50.03585 8.52943 343 ft 4 kts 90°
2026-05-06 17:43 50.03590 8.52988 343 ft 3 kts 70°
2026-05-06 17:44 50.03601 8.53032 343 ft 4 kts 70°
2026-05-06 17:44 50.03612 8.53081 343 ft 4 kts 69°
2026-05-06 17:44 50.03626 8.53136 344 ft 6 kts 70°
2026-05-06 17:44 50.03645 8.53216 344 ft 7 kts 70°
2026-05-06 17:45 50.03661 8.53285 346 ft 6 kts 69°
2026-05-06 17:45 50.03678 8.53351 348 ft 8 kts 69°
2026-05-06 17:45 50.03702 8.53451 348 ft 10 kts 75°
2026-05-06 17:45 50.03704 8.53542 348 ft 5 kts 117°
2026-05-06 17:46 50.03661 8.53570 347 ft 8 kts 185°
2026-05-06 17:46 50.03591 8.53536 346 ft 11 kts 206°
2026-05-06 17:46 50.03528 8.53494 345 ft 6 kts 194°
2026-05-06 17:46 50.03486 8.53510 344 ft 7 kts 128°
2026-05-06 17:47 50.03490 8.53610 344 ft 8 kts 69°
2026-05-06 17:47 50.03513 8.53708 344 ft 12 kts 70°
2026-05-06 17:47 50.03554 8.53873 342 ft 19 kts 70°
2026-05-06 17:47 50.03609 8.54105 341 ft 25 kts 70°
2026-05-06 17:48 50.03676 8.54393 338 ft 29 kts 70°
2026-05-06 17:48 50.03746 8.54683 340 ft 28 kts 70°
2026-05-06 17:48 50.03810 8.54950 344 ft 24 kts 70°
2026-05-06 17:48 50.03867 8.55182 348 ft 21 kts 68°
2026-05-06 17:49 50.03914 8.55387 349 ft 19 kts 70°
2026-05-06 17:49 50.03960 8.55577 349 ft 18 kts 69°
2026-05-06 17:49 50.04003 8.55746 349 ft 16 kts 69°
2026-05-06 17:49 50.04041 8.55911 351 ft 14 kts 71°
2026-05-06 17:50 50.04073 8.56047 352 ft 14 kts 71°
2026-05-06 17:50 50.04111 8.56214 355 ft 18 kts 70°
2026-05-06 17:50 50.04162 8.56425 357 ft 23 kts 70°
2026-05-06 17:50 50.04225 8.56690 360 ft 28 kts 70°
2026-05-06 17:51 50.04297 8.56990 367 ft 30 kts 69°
2026-05-06 17:51 50.04369 8.57290 368 ft 28 kts 70°
2026-05-06 17:51 50.04439 8.57578 366 ft 27 kts 69°
2026-05-06 17:51 50.04502 8.57845 371 ft 24 kts 70°
2026-05-06 17:52 50.04557 8.58073 374 ft 21 kts 69°
2026-05-06 17:52 50.04597 8.58237 376 ft 13 kts 71°
2026-05-06 17:52 50.04612 8.58304 376 ft 0 kts 70°
2026-05-06 17:52 50.04613 8.58306 376 ft 1 kts 70°
2026-05-06 17:53 50.04619 8.58334 376 ft 4 kts 71°
2026-05-06 17:53 50.04637 8.58415 373 ft 9 kts 70°
2026-05-06 17:53 50.04641 8.58428 373 ft 0 kts 70°
2026-05-06 17:54 50.04642 8.58434 373 ft 0 kts 69°
2026-05-06 17:54 50.04647 8.58456 372 ft 7 kts 70°
2026-05-06 17:54 50.04649 8.58541 369 ft 2 kts 114°
2026-05-06 17:55 50.04645 8.58549 368 ft 0 kts 135°
2026-05-06 17:56 50.04641 8.58556 368 ft 3 kts 136°
2026-05-06 17:57 50.04606 8.58585 366 ft 7 kts 161°
2026-05-06 17:57 50.04548 8.58618 364 ft 9 kts 163°
2026-05-06 17:57 50.04491 8.58598 364 ft 6 kts 230°
2026-05-06 17:57 50.04483 8.58575 365 ft 0 kts 248°
2026-05-06 18:00 50.04470 8.58521 367 ft 17 kts 251°
2026-05-06 18:00 50.04367 8.58081 372 ft 71 kts 250°
2026-05-06 18:00 50.04121 8.57064 363 ft 126 kts 250°
2026-05-06 18:01 50.03780 8.55561 394 ft 168 kts 253°
2026-05-06 18:01 50.03327 8.53675 601 ft 200 kts 252°
2026-05-06 18:01 50.02884 8.51858 1789 ft 171 kts 253°
2026-05-06 18:01 50.02206 8.50285 2014 ft 191 kts 219°
2026-05-06 18:02 50.00907 8.49431 2132 ft 218 kts 200°
2026-05-06 18:02 49.99461 8.48731 2745 ft 217 kts 201°
2026-05-06 18:02 49.98025 8.48027 3353 ft 219 kts 200°
2026-05-06 18:02 49.96586 8.47333 3975 ft 219 kts 201°
2026-05-06 18:03 49.95085 8.46625 4379 ft 232 kts 200°
2026-05-06 18:03 49.93500 8.45888 4762 ft 247 kts 200°
2026-05-06 18:03 49.91921 8.44871 5416 ft 246 kts 221°
2026-05-06 18:03 49.90825 8.42936 6107 ft 243 kts 240°
2026-05-06 18:04 49.89929 8.40733 6793 ft 244 kts 239°
2026-05-06 18:04 49.89032 8.38476 7397 ft 249 kts 246°
2026-05-06 18:04 49.88635 8.35798 7639 ft 268 kts 272°
2026-05-06 18:04 49.88779 8.32928 8362 ft 269 kts 274°
2026-05-06 18:05 49.88909 8.30009 9019 ft 274 kts 273°
2026-05-06 18:05 49.89187 8.27119 9706 ft 277 kts 289°
2026-05-06 18:05 49.90146 8.24504 10238 ft 288 kts 304°
2026-05-06 18:05 49.91355 8.21902 10465 ft 309 kts 304°
2026-05-06 18:06 49.92641 8.19134 10770 ft 327 kts 304°
2026-05-06 18:06 49.94055 8.16271 11057 ft 344 kts 312°
2026-05-06 18:06 49.95846 8.13780 11788 ft 347 kts 318°
2026-05-06 18:06 49.97669 8.11301 12430 ft 352 kts 318°
2026-05-06 18:07 49.99529 8.08795 12832 ft 361 kts 318°
2026-05-06 18:07 50.01445 8.06219 12871 ft 360 kts 319°
2026-05-06 18:07 50.03328 8.03692 13249 ft 361 kts 319°
2026-05-06 18:07 50.05209 8.01166 14083 ft 358 kts 319°
2026-05-06 18:08 50.07095 7.98634 14584 ft 365 kts 319°
2026-05-06 18:08 50.09028 7.96037 15207 ft 367 kts 319°
2026-05-06 18:08 50.10943 7.93463 15730 ft 372 kts 318°
2026-05-06 18:08 50.12913 7.90811 16298 ft 374 kts 318°
2026-05-06 18:09 50.14888 7.88148 16801 ft 379 kts 318°
2026-05-06 18:09 50.16872 7.85471 17334 ft 381 kts 318°
2026-05-06 18:09 50.18866 7.82779 17807 ft 385 kts 318°
2026-05-06 18:09 50.20894 7.80035 18308 ft 387 kts 318°
2026-05-06 18:10 50.22941 7.77264 18784 ft 391 kts 318°
2026-05-06 18:10 50.25038 7.74547 19243 ft 395 kts 324°
2026-05-06 18:10 50.27446 7.72520 19695 ft 400 kts 335°
2026-05-06 18:10 50.30008 7.70761 20149 ft 403 kts 335°
2026-05-06 18:11 50.32548 7.69002 20597 ft 406 kts 335°
2026-05-06 18:11 50.35143 7.67214 21043 ft 409 kts 335°
2026-05-06 18:11 50.37741 7.65426 21520 ft 411 kts 335°
2026-05-06 18:11 50.40362 7.63623 21929 ft 415 kts 335°
2026-05-06 18:12 50.43014 7.61798 22356 ft 418 kts 335°
2026-05-06 18:12 50.45686 7.59957 22798 ft 420 kts 335°
2026-05-06 18:12 50.48329 7.58134 23190 ft 423 kts 335°
2026-05-06 18:12 50.51044 7.56262 23627 ft 425 kts 335°
2026-05-06 18:13 50.53737 7.54400 24008 ft 428 kts 335°
2026-05-06 18:13 50.56376 7.52285 24387 ft 429 kts 327°
2026-05-06 18:13 50.58893 7.49749 24751 ft 431 kts 326°
2026-05-06 18:13 50.61416 7.47199 25130 ft 434 kts 326°
2026-05-06 18:14 50.63938 7.44634 25483 ft 437 kts 326°
2026-05-06 18:14 50.66511 7.42005 25846 ft 439 kts 326°
2026-05-06 18:14 50.69058 7.39395 26195 ft 442 kts 326°
2026-05-06 18:14 50.71602 7.36630 26542 ft 443 kts 320°
2026-05-06 18:15 50.73815 7.33346 26863 ft 444 kts 309°
2026-05-06 18:15 50.75662 7.29460 27197 ft 444 kts 300°
2026-05-06 18:15 50.77157 7.25230 27516 ft 446 kts 296°
2026-05-06 18:15 50.78619 7.20907 27842 ft 448 kts 296°
2026-05-06 18:16 50.80079 7.16524 28186 ft 450 kts 296°
2026-05-06 18:16 50.81525 7.12132 28483 ft 453 kts 296°
2026-05-06 18:16 50.82965 7.07726 28788 ft 455 kts 296°
2026-05-06 18:16 50.84397 7.03324 29093 ft 457 kts 296°
2026-05-06 18:17 50.85864 6.98795 29386 ft 460 kts 296°
2026-05-06 18:17 50.87318 6.94291 29662 ft 462 kts 296°
2026-05-06 18:17 50.88763 6.89807 29937 ft 465 kts 296°
2026-05-06 18:17 50.90236 6.85230 30198 ft 467 kts 296°
2026-05-06 18:18 50.91711 6.80630 30446 ft 470 kts 296°
2026-05-06 18:18 50.93184 6.76031 30713 ft 472 kts 296°
2026-05-06 18:18 50.94653 6.71437 30980 ft 474 kts 296°
2026-05-06 18:18 50.96158 6.66720 31132 ft 479 kts 296°
2026-05-06 18:19 50.97651 6.62030 31469 ft 477 kts 296°
2026-05-06 18:19 50.99135 6.57361 31826 ft 475 kts 296°
2026-05-06 18:19 51.00599 6.52747 32174 ft 473 kts 296°
2026-05-06 18:19 51.02074 6.48088 32472 ft 472 kts 296°
2026-05-06 18:20 51.03541 6.43445 32750 ft 472 kts 296°
2026-05-06 18:20 51.05011 6.38780 33051 ft 470 kts 296°
2026-05-06 18:20 51.06459 6.34183 33268 ft 470 kts 295°
2026-05-06 18:20 51.07909 6.29568 33499 ft 468 kts 295°
2026-05-06 18:21 51.09358 6.24947 33700 ft 467 kts 295°
2026-05-06 18:21 51.10798 6.20343 33874 ft 464 kts 295°
2026-05-06 18:21 51.13593 6.11105 33901 ft 463 kts 289°
2026-05-06 18:22 51.15383 6.01268 33901 ft 464 kts 284°
2026-05-06 18:22 51.17014 5.91424 33901 ft 463 kts 284°
2026-05-06 18:23 51.19091 5.81764 33911 ft 464 kts 297°
2026-05-06 18:23 51.22330 5.72920 33906 ft 464 kts 300°
2026-05-06 18:24 51.25616 5.64116 33907 ft 463 kts 300°
2026-05-06 18:24 51.28907 5.55318 33907 ft 462 kts 300°
2026-05-06 18:25 51.32183 5.46551 33912 ft 462 kts 300°
2026-05-06 18:25 51.35451 5.37781 33912 ft 462 kts 300°
2026-05-06 18:26 51.38724 5.28973 33920 ft 462 kts 300°
2026-05-06 18:26 51.41999 5.20128 33919 ft 461 kts 300°
2026-05-06 18:27 51.45242 5.11341 33921 ft 461 kts 300°
2026-05-06 18:27 51.48485 5.02521 33923 ft 460 kts 300°
2026-05-06 18:28 51.51705 4.93735 33925 ft 460 kts 300°
2026-05-06 18:28 51.54945 4.84862 33927 ft 459 kts 299°
2026-05-06 18:29 51.57285 4.75456 33942 ft 457 kts 282°
2026-05-06 18:29 51.58463 4.65507 33930 ft 456 kts 280°
2026-05-06 18:30 51.59573 4.55459 33931 ft 456 kts 279°
2026-05-06 18:30 51.60634 4.45491 33936 ft 456 kts 279°
2026-05-06 18:31 51.61686 4.35431 33931 ft 455 kts 279°
2026-05-06 18:31 51.62711 4.25488 33928 ft 455 kts 278°
2026-05-06 18:32 51.63732 4.15480 33937 ft 454 kts 278°
2026-05-06 18:32 51.64746 4.05456 33936 ft 454 kts 278°
2026-05-06 18:33 51.65745 3.95484 33935 ft 453 kts 278°
2026-05-06 18:33 51.66742 3.85447 33944 ft 454 kts 279°
2026-05-06 18:34 51.67728 3.75422 33943 ft 453 kts 279°
2026-05-06 18:34 51.68702 3.65430 33940 ft 454 kts 279°
2026-05-06 18:35 51.69669 3.55426 33939 ft 453 kts 279°
2026-05-06 18:35 51.70627 3.45421 33946 ft 453 kts 279°
2026-05-06 18:36 51.71575 3.35420 33952 ft 453 kts 279°
2026-05-06 18:36 51.72510 3.25465 33953 ft 453 kts 278°
2026-05-06 18:37 51.72937 3.15385 33964 ft 452 kts 265°
2026-05-06 18:37 51.72185 3.05307 33956 ft 454 kts 263°
2026-05-06 18:38 51.71361 2.95296 33964 ft 452 kts 263°
2026-05-06 18:38 51.70502 2.85300 33954 ft 453 kts 262°
2026-05-06 18:39 51.69620 2.75258 33956 ft 453 kts 262°
2026-05-06 18:40 51.68284 2.60276 33964 ft 453 kts 262°
2026-05-06 18:40 51.67381 2.50245 33967 ft 452 kts 262°
2026-05-06 18:41 51.66472 2.40284 33968 ft 453 kts 262°
2026-05-06 18:41 51.65552 2.30296 33974 ft 453 kts 262°
2026-05-06 18:42 51.64616 2.20235 33979 ft 452 kts 262°
2026-05-06 18:42 51.63682 2.10284 33977 ft 452 kts 262°
2026-05-06 18:43 51.62760 2.00293 33979 ft 453 kts 262°
2026-05-06 18:43 51.61835 1.90366 33979 ft 452 kts 262°
2026-05-06 18:44 51.60894 1.80365 33977 ft 451 kts 262°
2026-05-06 18:44 51.59952 1.70449 33978 ft 451 kts 262°
2026-05-06 18:45 51.59222 1.60507 33982 ft 451 kts 271°
2026-05-06 18:45 51.59575 1.50475 33981 ft 451 kts 274°
2026-05-06 18:46 51.59981 1.40452 33978 ft 450 kts 274°
2026-05-06 18:46 51.60393 1.30439 33984 ft 450 kts 274°
2026-05-06 18:47 51.60801 1.20414 33985 ft 450 kts 274°
2026-05-06 18:47 51.61201 1.10436 33986 ft 449 kts 274°
2026-05-06 18:48 51.61594 1.00462 33987 ft 449 kts 274°
2026-05-06 18:48 51.61979 0.90459 33989 ft 448 kts 273°
2026-05-06 18:49 51.62355 0.80468 33991 ft 450 kts 273°
2026-05-06 18:49 51.62723 0.70450 33992 ft 448 kts 274°
2026-05-06 18:50 51.63081 0.60514 33990 ft 449 kts 274°
2026-05-06 18:50 51.63432 0.50518 33989 ft 448 kts 274°
2026-05-06 18:51 51.63774 0.40527 33989 ft 447 kts 274°
2026-05-06 18:51 51.64106 0.30590 33991 ft 447 kts 273°
2026-05-06 18:52 51.64838 0.20678 34007 ft 447 kts 285°
2026-05-06 18:52 51.67419 0.11674 34009 ft 449 kts 304°
2026-05-06 18:53 51.71521 0.04132 33995 ft 450 kts 312°
2026-05-06 18:53 51.75834 -0.03143 33999 ft 450 kts 313°
2026-05-06 18:54 51.80185 -0.10393 33997 ft 450 kts 313°
2026-05-06 18:54 51.84520 -0.17597 34002 ft 450 kts 313°
2026-05-06 18:55 51.88851 -0.24801 34003 ft 449 kts 313°
2026-05-06 18:55 51.93204 -0.32054 33999 ft 449 kts 313°
2026-05-06 18:56 51.97526 -0.39274 34001 ft 449 kts 313°
2026-05-06 18:56 52.01860 -0.46535 33993 ft 443 kts 313°
2026-05-06 18:56 52.03960 -0.50061 33973 ft 429 kts 313°
2026-05-06 18:57 52.06010 -0.53509 33443 ft 426 kts 313°
2026-05-06 18:57 52.08061 -0.56965 32791 ft 427 kts 313°
2026-05-06 18:57 52.10109 -0.60418 32148 ft 427 kts 313°
2026-05-06 18:57 52.12144 -0.63854 31552 ft 425 kts 313°
2026-05-06 18:58 52.14170 -0.67281 31005 ft 422 kts 312°
2026-05-06 18:58 52.16180 -0.70685 30471 ft 416 kts 312°
2026-05-06 18:58 52.18198 -0.74109 29981 ft 416 kts 312°
2026-05-06 18:58 52.20198 -0.77506 29521 ft 423 kts 312°
2026-05-06 18:59 52.22245 -0.80988 29046 ft 426 kts 312°
2026-05-06 18:59 52.24324 -0.84303 28842 ft 418 kts 319°
2026-05-06 18:59 52.26670 -0.87040 28506 ft 419 kts 326°
2026-05-06 18:59 52.29181 -0.89567 27879 ft 425 kts 327°
2026-05-06 19:00 52.31660 -0.92063 27309 ft 421 kts 327°
2026-05-06 19:00 52.34137 -0.94548 26766 ft 417 kts 327°
2026-05-06 19:00 52.36589 -0.97004 26282 ft 411 kts 327°
2026-05-06 19:00 52.39012 -0.99430 25839 ft 405 kts 327°
2026-05-06 19:01 52.41390 -1.01812 25363 ft 401 kts 327°
2026-05-06 19:01 52.43728 -1.04155 24910 ft 394 kts 327°
2026-05-06 19:01 52.46051 -1.06485 24490 ft 390 kts 327°
2026-05-06 19:01 52.48363 -1.08807 24073 ft 391 kts 327°
2026-05-06 19:02 52.50670 -1.11127 23631 ft 395 kts 327°
2026-05-06 19:02 52.53012 -1.13483 23237 ft 391 kts 327°
2026-05-06 19:02 52.55310 -1.15797 22725 ft 389 kts 327°
2026-05-06 19:02 52.57581 -1.18087 22319 ft 383 kts 327°
2026-05-06 19:03 52.59810 -1.20336 21888 ft 378 kts 327°